Location: ??????
(30.0081°N, 31.2109°E)
Time: 07:19:09
(UTC+00:00)

CZ-3 Stage 3 - Pass Details

Date: 03 March 2021
Orbit: 284 x 27201 km, 30.5° (Epoch: 15 April)

Event Time Altitude Azimuth Distance (km) Brightness Sun altitude
Rises 17:37:06 0° 277° (W) 4,034 8.2 -22.7°
Reaches altitude 10° 17:41:04 10° 277° (W) 1,935 6.2 -23.6°
Enters shadow 17:43:27 33° 274° (W) 668 3.3 -24.1°
